Location: Düngen
(52.0952°N, 10.0219°E)
Time: 16:16:05
(UTC+00:00)

Cosmos 1953 Rocket - Pass Details

Date: 11 March 2026
Orbit: 599 x 626 km, 82.5° (Epoch: 14 April)

Event Time Altitude Azimuth Distance (km) Brightness Sun altitude
Rises 18:29:48 0° 172° (S) 2,835 6.8 -11.9°
Reaches altitude 10° 18:32:03 10° 167° (SSE) 1,937 5.9 -12.3°
Maximum altitude 18:36:08 46° 94° (E) 811 3.7 -12.9°
Drops below altitude 10° 18:40:16 10° 21° (NNE) 1,956 6.0 -13.5°
Sets 18:42:33 0° 16° (NNE) 2,867 7.0 -13.8°
